TimePDT,TemperatureF,Dew PointF,Humidity,Sea Level PressureIn,VisibilityMPH,Wind Direction,Wind SpeedMPH,Gust SpeedMPH,PrecipitationIn,Events,Conditions,WindDirDegrees,DateUTC
12:55 AM,60.4,59.5,97,29.99,10.0,WSW,4.6,-,N/A,,Clear,240,2012-10-10 07:55:00
1:55 AM,60.6,60.4,99,29.99,10.0,SW,4.6,-,N/A,,Clear,230,2012-10-10 08:55:00
2:55 AM,59.7,59.5,99,29.99,10.0,Calm,Calm,-,N/A,,Clear,0,2012-10-10 09:55:00
3:55 AM,60.6,60.3,99,29.97,10.0,West,6.9,-,N/A,,Clear,260,2012-10-10 10:55:00
4:55 AM,59.7,59.4,99,29.97,10.0,Calm,Calm,-,N/A,,Clear,0,2012-10-10 11:55:00
5:55 AM,58.5,58.5,100,29.98,10.0,Calm,Calm,-,N/A,,Clear,0,2012-10-10 12:55:00
6:15 AM,57.2,57.2,100,29.98,10.0,Calm,Calm,-,N/A,,Mostly Cloudy,0,2012-10-10 13:15:00
6:54 AM,59.0,59.0,100,29.99,10.0,Calm,Calm,-,N/A,,Scattered Clouds,0,2012-10-10 13:54:00
6:55 AM,59.0,59.0,100,29.98,10.0,Calm,Calm,-,N/A,,Scattered Clouds,0,2012-10-10 13:55:00
7:55 AM,61.0,61.0,100,29.99,10.0,Calm,Calm,-,N/A,,Partly Cloudy,0,2012-10-10 14:55:00
9:55 AM,69.1,60.4,74,30.01,10.0,South,4.6,-,N/A,,Scattered Clouds,180,2012-10-10 16:55:00
10:55 AM,70.2,59.0,68,29.99,10.0,Variable,4.6,-,N/A,,Mostly Cloudy,0,2012-10-10 17:55:00
11:55 AM,72.1,59.2,64,29.99,10.0,South,10.4,-,N/A,,Partly Cloudy,190,2012-10-10 18:55:00
12:55 PM,73.2,59.7,63,29.96,10.0,SW,10.4,-,N/A,,Partly Cloudy,220,2012-10-10 19:55:00
1:55 PM,73.6,59.5,61,29.94,10.0,SW,11.5,-,N/A,,Partly Cloudy,230,2012-10-10 20:55:00
2:55 PM,72.7,59.2,62,29.92,10.0,SW,13.8,-,N/A,,Partly Cloudy,230,2012-10-10 21:55:00
3:55 PM,73.0,57.7,59,29.91,10.0,SW,11.5,-,N/A,,Partly Cloudy,230,2012-10-10 22:55:00
4:55 PM,72.1,57.9,61,29.91,10.0,SSW,10.4,-,N/A,,Partly Cloudy,210,2012-10-10 23:55:00
5:55 PM,69.4,58.3,68,29.91,10.0,WSW,8.1,-,N/A,,Mostly Cloudy,250,2012-10-11 00:55:00
6:55 PM,66.4,56.1,69,29.92,10.0,West,5.8,-,N/A,,Scattered Clouds,280,2012-10-11 01:55:00
7:55 PM,64.8,56.5,74,29.93,10.0,West,6.9,-,N/A,,Partly Cloudy,260,2012-10-11 02:55:00
8:55 PM,63.0,57.0,81,29.94,10.0,Calm,Calm,-,N/A,,Mostly Cloudy,0,2012-10-11 03:55:00
9:55 PM,63.1,57.6,82,29.95,10.0,West,3.5,-,N/A,,Mostly Cloudy,270,2012-10-11 04:55:00
10:55 PM,62.1,57.9,86,29.95,10.0,Calm,Calm,-,N/A,,Scattered Clouds,0,2012-10-11 05:55:00
11:55 PM,62.4,57.9,85,29.94,10.0,WNW,3.5,-,N/A,,Partly Cloudy,300,2012-10-11 06:55:00